SCP
0 0 0 0 0 0 0 0 0 0 0 0 0 0 -0 0 0 -0 -0 0 0 0 0 0 0 0 0 0 1 1 0 0 0 0 0 0 0 0 0 0 0 0 0
0 0 0 0 0 0 0 0 0 0 0 0 0 0 0 -0 -0 0 0 -0 0 0 0 0 0 0 0 0 0 1 1 0 0 0 0 0 0 0 0 1 0 0 0
0 0 0 0 0 0 0 0 0 0 0 0 0 0 0 0 0 -0 -0 0 0 0 0 0 0 0 0 0 0 0 1 1 0 0 0 0 0 1 1 1 1 0 0
0 0 0 0 0 0 0 0 0 0 0 0 0 0 0 0 0 0 0 0 0 0 0 0 0 0 0 0 0 -0 1 1 0 0 0 0 0 0 2 1 1 0 0
0 0 0 0 0 0 0 0 0 0 0 0 0 0 0 0 0 0 0 0 0 0 0 0 0 0 0 -0 0 0 0 1 1 0 0 0 0 0 1 1 1 1 0
0 0 0 0 0 0 0 0 0 0 0 0 0 0 0 0 0 0 0 0 0 0 0 0 0 0 0 0 -0 0 0 0 1 1 0 0 0 0 1 1 1 1 0
0 0 0 0 0 0 0 0 0 0 0 0 0 0 0 0 0 0 0 0 0 0 0 0 0 0 0 0 0 0 0 0 1 1 0 0 0 1 1 1 1 1 0
0 0 0 0 0 0 0 0 0 0 0 0 0 0 0 0 0 0 0 0 0 0 0 0 0 0 0 0 0 0 0 1 1 1 0 0 0 1 1 0 1 1 0
0 0 0 0 0 0 0 0 0 0 0 0 0 0 0 0 0 0 0 0 0 0 0 0 0 0 0 0 0 0 0 1 1 0 0 0 0 1 1 0 1 1 1
0 0 0 0 0 0 0 0 0 0 0 0 0 0 0 0 0 0 0 0 0 0 0 0 0 0 0 0 0 0 0 1 1 1 0 0 0 0 1 1 1 1 1
0 0 0 0 0 0 0 0 0 0 0 0 0 0 0 0 0 0 0 0 0 0 0 0 0 0 0 -0 1 1 1 1 0 0 0 0 0 0 0 1 1 1 0
0 0 0 0 0 0 0 0 0 0 0 0 0 0 0 0 0 0 0 0 0 0 0 0 0 0 0 -0 1 1 1 0 1 0 0 0 1 0 0 1 1 0 0
0 0 0 0 0 0 0 0 0 0 0 0 0 0 0 0 0 0 0 0 0 0 0 0 -0 0 0 -0 1 1 1 1 1 1 0 0 1 2 0 0 0 0 0
0 0 0 0 0 0 0 0 0 0 0 0 0 0 0 0 0 0 0 0 0 -0 0 -0 0 0 -0 0 1 1 1 2 2 0 0 0 0 1 0 0 0 0 0
0 0 0 0 0 0 0 0 0 0 0 0 0 0 0 0 0 0 0 0 0 -0 -0 -0 -0 0 0 0 1 0 0 0 1 1 0 0 0 0 1 0 0 0 0
0 0 0 0 0 0 0 0 0 0 0 0 0 0 0 0 0 0 0 0 0 -0 -0 -0 0 0 0 0 0 0 0 0 0 0 0 0 0 0 0 0 0 0 0
0 0 0 0 0 0 0 0 0 0 0 0 0 0 0 0 0 0 0 0 0 -0 -0 -0 0 0 0 0 0 0 0 0 0 0 0 0 0 0 0 0 0 0 0
0 0 0 0 0 0 0 0 0 0 0 0 0 0 0 0 0 0 0 0 0 0 0 0 0 0 0 0 0 0 0 0 0 0 0 1 1 0 0 0 0 0 0
0 0 0 0 0 0 0 0 0 0 0 0 0 0 0 0 0 0 0 0 0 0 0 0 0 0 0 0 0 0 0 0 0 -0 0 0 1 0 0 0 0 0 0
0 0 0 0 0 0 0 0 0 0 0 0 0 0 0 0 0 0 0 0 0 0 0 0 0 0 0 0 0 0 0 0 0 0 0 1 1 0 0 0 0 0 0
0 0 0 0 0 0 0 0 0 0 0 0 0 0 0 0 0 0 0 0 0 0 0 0 0 0 0 0 0 0 0 0 0 0 0 0 0 0 0 0 0 0 0
0 0 0 0 0 0 0 0 0 0 0 0 0 0 0 0 0 0 0 0 0 0 0 0 0 0 0 0 0 0 0 0 0 0 0 0 0 0 0 0 0 0 0
0 0 0 0 0 0 0 0 0 0 0 0 0 0 0 0 0 0 -0 -0 -0 0 0 -0 0 0 0 0 0 0 0 0 0 0 0 0 0 0 0 0 0 0 0
0 0 0 0 0 0 0 0 0 0 0 0 0 0 0 0 0 0 -0 -0 -0 -0 0 0 0 0 0 0 0 0 0 0 0 0 0 0 0 0 0 0 0 0 0
0 0 0 0 0 0 0 0 0 0 0 0 0 0 0 0 0 0 -0 0 0 0 -0 0 0 0 0 0 0 0 0 0 0 0 0 0 0 0 0 0 0 0 0
0 0 0 0 0 0 0 0 0 0 0 0 -0 0 0 0 -0 0 0 0 -0 -0 -0 0 0 0 0 0 0 0 0 0 0 0 0 0 0 0 0 0 0 0 0
Wind_Speed_500mb
38 27 20 18 16 18 25 31 39 48 52 53 58 64 68 71 73 74 72 69 58 49 52 52 50 78 86 97 100 96 89 83 72 72 69 64 66 65 65 64 55 51 39
47 37 25 14 16 19 23 32 41 49 54 57 51 56 63 67 69 76 82 83 70 61 55 53 61 57 85 93 85 100 100 89 83 85 66 78 68 75 60 62 57 54 44
58 40 24 14 9 13 25 38 47 46 51 57 57 61 67 71 77 80 84 77 72 62 65 56 62 76 72 81 97 87 102 100 92 92 64 60 40 59 63 68 65 63 53
48 35 27 15 10 19 30 40 45 53 58 61 63 66 64 69 68 71 74 75 71 71 68 70 66 66 86 89 89 120 99 100 100 93 99 83 62 63 40 67 70 67 65
44 35 22 10 12 29 42 48 52 56 60 64 63 64 69 70 69 67 70 75 76 74 72 71 73 73 75 88 106 98 89 103 98 106 107 91 79 66 59 55 71 73 70
34 22 13 10 24 37 42 44 48 53 60 64 69 70 67 74 76 70 71 77 79 77 75 75 79 85 77 74 81 98 114 93 100 95 98 106 91 77 82 63 83 76 72
22 15 9 20 27 37 38 39 49 58 63 70 75 71 74 74 79 77 70 69 72 75 80 76 79 89 85 69 88 96 94 109 99 107 107 108 101 84 81 78 76 69 65
11 11 16 19 25 28 33 41 55 65 72 78 79 70 65 62 66 70 75 75 76 81 82 85 82 88 85 77 87 95 87 113 92 117 110 98 102 94 89 92 82 59 56
21 21 16 17 19 26 39 52 59 67 72 76 80 80 71 66 70 75 78 85 87 86 88 91 85 88 87 78 86 97 97 79 108 124 119 111 108 107 102 87 95 80 52
30 18 14 15 25 38 47 52 62 64 69 80 80 70 62 59 68 76 74 73 85 91 91 91 87 89 85 95 89 93 95 91 115 117 122 112 99 109 105 95 85 78 78
26 18 19 26 31 38 48 54 58 64 73 83 81 76 68 67 69 72 75 71 75 79 87 86 86 82 79 88 90 94 89 114 129 104 110 110 101 104 104 90 89 79 79
20 18 22 24 30 40 48 53 62 69 78 78 76 69 68 64 67 72 74 72 72 71 77 78 81 80 78 93 97 96 97 130 114 103 99 104 112 110 96 101 88 80 74
23 20 18 25 37 41 46 54 60 70 80 84 74 62 64 64 65 68 73 70 67 65 72 73 72 74 67 102 101 97 104 109 114 105 109 112 114 110 98 88 99 84 78
21 14 19 32 40 46 49 58 66 77 87 76 67 64 63 66 73 67 69 70 67 67 68 68 71 71 81 82 88 100 104 118 122 103 109 112 108 115 99 90 86 95 85
13 18 28 37 41 45 52 61 72 80 78 71 66 65 62 66 70 74 72 72 71 70 67 71 66 65 73 69 81 95 107 104 100 101 104 107 109 98 108 97 80 87 86
15 22 31 34 40 44 53 65 77 82 69 69 68 69 68 72 70 74 73 76 80 72 65 68 66 57 56 78 80 96 101 122 89 105 105 108 103 96 112 101 93 80 88
16 25 27 35 37 44 58 69 78 73 64 66 69 70 70 71 73 71 71 75 71 67 61 63 59 55 45 64 63 75 85 107 117 105 107 98 97 108 102 107 99 79 78
18 18 27 31 36 46 58 69 76 64 65 66 70 70 70 70 69 65 71 76 71 64 57 55 55 49 41 55 69 80 85 84 75 74 108 100 110 109 101 108 102 90 74
13 22 28 31 35 48 62 67 66 63 62 66 67 70 70 70 67 70 72 72 71 61 54 54 56 50 42 51 53 63 83 98 85 108 113 130 103 99 99 92 96 89 83
17 22 23 27 38 53 59 60 57 60 62 65 66 66 68 70 72 64 59 59 55 52 47 54 54 60 52 49 48 59 59 76 49 32 121 126 108 97 97 93 91 90 79
15 17 23 31 42 53 55 56 55 60 61 63 63 61 65 63 58 53 44 37 36 33 43 55 62 58 46 44 47 54 77 58 50 39 88 100 89 83 86 91 87 85 85
13 17 24 31 40 47 51 58 57 59 59 60 59 60 61 55 58 52 40 38 31 34 45 55 55 37 41 42 47 58 76 58 69 85 70 62 67 75 83 75 76 81 79
12 17 25 29 40 41 46 57 56 57 59 59 59 59 53 54 53 56 36 49 45 54 52 77 39 31 35 40 36 43 76 73 48 80 69 70 68 58 60 65 77 78 76
13 18 19 32 42 37 45 51 54 54 54 59 59 59 53 47 37 36 45 49 47 59 70 85 13 38 41 40 30 34 58 71 53 67 81 69 61 58 69 66 57 65 72
9 10 21 29 41 38 43 48 49 51 53 57 58 57 54 48 36 33 35 31 28 34 49 72 9 31 51 39 31 40 50 69 63 60 64 54 67 81 65 57 58 58 63
4 11 16 24 34 37 41 45 46 46 48 55 57 53 51 50 44 41 31 26 26 18 16 38 30 33 44 39 27 29 48 68 67 65 66 53 61 54 63 63 70 71 71
Wind_Direction_500mb
175 186 209 248 277 295 304 313 316 317 316 318 322 319 315 313 309 309 309 301 294 285 278 273 284 255 259 242 248 245 242 240 237 229 224 216 221 229 235 234 232 223 233
170 175 179 198 258 295 311 315 314 313 313 311 312 308 308 308 308 305 303 305 293 285 277 274 268 267 260 259 239 242 239 236 230 226 223 216 215 221 225 225 230 228 229
172 170 171 196 232 284 302 306 310 310 311 310 304 298 297 296 299 304 306 303 297 282 277 277 268 267 269 269 248 238 237 233 231 228 213 200 205 215 222 227 224 226 229
175 171 165 184 253 295 309 311 306 308 312 314 305 303 300 301 303 304 305 302 295 291 284 282 276 275 271 268 261 258 229 228 228 225 216 216 212 199 202 215 218 227 228
169 157 167 192 295 312 310 308 305 306 312 314 312 304 298 296 295 297 300 299 294 291 290 286 285 283 275 271 262 259 248 222 222 222 212 211 210 211 201 198 209 220 224
151 161 183 263 290 297 299 297 303 310 313 313 312 307 301 297 295 291 291 291 292 292 288 289 289 289 279 267 266 261 250 244 223 220 210 210 205 207 204 201 205 207 216
154 159 242 270 284 291 286 298 308 314 318 318 315 306 301 295 290 289 289 292 287 287 286 286 291 292 280 260 262 250 259 240 216 218 211 211 211 211 209 211 207 196 206
168 219 239 270 281 274 292 308 315 317 319 319 318 311 307 303 294 288 283 280 281 285 288 290 297 288 278 251 253 253 252 234 227 223 215 211 214 211 217 214 213 187 193
204 223 242 260 256 293 307 313 315 317 320 324 317 313 306 301 297 293 286 276 276 278 284 287 292 284 280 257 251 246 244 224 210 219 219 219 221 220 217 221 220 207 189
193 190 230 251 290 302 306 312 315 321 322 324 323 312 307 303 301 299 291 287 276 273 276 282 285 279 285 266 246 236 225 214 206 218 220 221 217 219 219 222 225 220 216
189 210 260 275 287 298 308 315 321 324 323 322 321 315 308 308 307 305 299 293 285 275 271 278 281 282 286 258 247 230 222 200 203 211 224 222 219 221 223 219 224 223 218
183 228 251 275 292 305 312 321 326 323 322 317 315 309 309 308 307 307 303 297 290 276 273 280 281 282 284 250 245 229 213 190 197 209 219 223 224 223 224 217 218 217 219
194 225 254 287 306 315 320 324 325 320 320 318 315 314 316 311 308 305 305 303 296 280 276 283 288 280 280 267 223 221 215 204 201 212 216 222 221 216 220 220 216 220 224
194 239 288 311 320 317 323 325 324 323 323 320 317 313 314 312 312 310 307 305 300 284 279 283 293 296 284 230 222 219 197 194 195 213 222 223 221 216 215 218 218 216 220
226 281 311 317 317 318 323 321 322 325 324 320 320 319 320 318 314 312 306 304 302 283 280 286 292 297 297 238 222 215 198 200 203 213 226 224 224 218 211 213 210 213 217
266 302 313 314 320 321 319 320 324 326 321 323 324 323 323 320 316 315 311 304 301 286 276 283 295 303 280 230 217 213 210 202 195 205 215 226 225 221 214 212 214 213 213
277 302 309 320 322 317 318 324 325 325 327 327 329 326 324 319 316 313 307 307 305 290 275 279 295 292 286 220 200 183 195 212 214 217 212 219 221 220 215 212 214 212 216
298 308 313 320 316 316 320 324 328 331 332 333 330 330 325 320 320 316 311 310 309 296 276 275 291 291 300 245 220 218 217 228 213 211 216 213 214 214 214 213 212 214 219
320 309 315 312 311 320 325 327 333 331 337 335 332 330 329 323 320 314 309 303 304 299 275 273 283 288 298 267 232 218 221 221 226 238 233 212 209 206 204 206 208 212 217
288 294 296 304 320 324 326 330 335 334 337 336 336 336 337 332 326 322 315 309 301 297 277 278 281 299 295 264 234 212 202 200 227 189 185 193 200 196 199 202 203 207 206
282 291 309 316 323 329 328 336 339 338 336 340 340 347 346 341 346 334 332 326 325 310 290 294 291 293 295 245 221 215 210 207 206 161 160 175 183 188 196 204 203 206 203
284 299 307 317 328 333 336 344 343 338 340 342 348 353 352 357 5 357 346 352 349 327 321 311 300 285 272 236 215 197 208 195 190 177 168 172 185 193 197 199 203 207 206
290 303 310 322 325 331 346 346 344 342 340 346 356 354 355 6 20 16 26 37 33 12 352 343 291 262 240 215 201 191 199 194 198 196 191 196 198 195 196 200 204 205 204
297 306 310 322 329 336 354 346 346 342 344 351 357 360 2 4 15 31 28 27 18 359 353 350 277 216 200 183 165 182 193 198 186 193 198 196 198 205 204 196 201 207 204
296 302 317 332 333 343 353 348 350 346 350 356 358 3 4 357 360 2 11 14 23 19 351 350 25 185 183 181 193 183 192 195 202 190 195 190 196 179 175 185 192 195 200
305 317 326 325 333 342 353 352 356 354 353 360 0 5 6 1 1 357 355 352 340 8 22 350 37 116 156 162 174 183 189 195 187 172 173 171 178 161 170 194 194 195 196
Wind_Speed_850mb
38 27 20 18 16 18 25 31 39 48 52 53 58 64 68 71 73 74 72 69 58 49 52 52 50 78 86 97 100 96 89 83 72 72 69 64 66 65 65 64 55 51 39
47 37 25 14 16 19 23 32 41 49 54 57 51 56 63 67 69 76 82 83 70 61 55 53 61 57 85 93 85 100 100 89 83 85 66 78 68 75 60 62 57 54 44
58 40 24 14 9 13 25 38 47 46 51 57 57 61 67 71 77 80 84 77 72 62 65 56 62 76 72 81 97 87 102 100 92 92 64 60 40 59 63 68 65 63 53
48 35 27 15 10 19 30 40 45 53 58 61 63 66 64 69 68 71 74 75 71 71 68 70 66 66 86 89 89 120 99 100 100 93 99 83 62 63 40 67 70 67 65
44 35 22 10 12 29 42 48 52 56 60 64 63 64 69 70 69 67 70 75 76 74 72 71 73 73 75 88 106 98 89 103 98 106 107 91 79 66 59 55 71 73 70
34 22 13 10 24 37 42 44 48 53 60 64 69 70 67 74 76 70 71 77 79 77 75 75 79 85 77 74 81 98 114 93 100 95 98 106 91 77 82 63 83 76 72
22 15 9 20 27 37 38 39 49 58 63 70 75 71 74 74 79 77 70 69 72 75 80 76 79 89 85 69 88 96 94 109 99 107 107 108 101 84 81 78 76 69 65
11 11 16 19 25 28 33 41 55 65 72 78 79 70 65 62 66 70 75 75 76 81 82 85 82 88 85 77 87 95 87 113 92 117 110 98 102 94 89 92 82 59 56
21 21 16 17 19 26 39 52 59 67 72 76 80 80 71 66 70 75 78 85 87 86 88 91 85 88 87 78 86 97 97 79 108 124 119 111 108 107 102 87 95 80 52
30 18 14 15 25 38 47 52 62 64 69 80 80 70 62 59 68 76 74 73 85 91 91 91 87 89 85 95 89 93 95 91 115 117 122 112 99 109 105 95 85 78 78
26 18 19 26 31 38 48 54 58 64 73 83 81 76 68 67 69 72 75 71 75 79 87 86 86 82 79 88 90 94 89 114 129 104 110 110 101 104 104 90 89 79 79
20 18 22 24 30 40 48 53 62 69 78 78 76 69 68 64 67 72 74 72 72 71 77 78 81 80 78 93 97 96 97 130 114 103 99 104 112 110 96 101 88 80 74
23 20 18 25 37 41 46 54 60 70 80 84 74 62 64 64 65 68 73 70 67 65 72 73 72 74 67 102 101 97 104 109 114 105 109 112 114 110 98 88 99 84 78
21 14 19 32 40 46 49 58 66 77 87 76 67 64 63 66 73 67 69 70 67 67 68 68 71 71 81 82 88 100 104 118 122 103 109 112 108 115 99 90 86 95 85
13 18 28 37 41 45 52 61 72 80 78 71 66 65 62 66 70 74 72 72 71 70 67 71 66 65 73 69 81 95 107 104 100 101 104 107 109 98 108 97 80 87 86
15 22 31 34 40 44 53 65 77 82 69 69 68 69 68 72 70 74 73 76 80 72 65 68 66 57 56 78 80 96 101 122 89 105 105 108 103 96 112 101 93 80 88
16 25 27 35 37 44 58 69 78 73 64 66 69 70 70 71 73 71 71 75 71 67 61 63 59 55 45 64 63 75 85 107 117 105 107 98 97 108 102 107 99 79 78
18 18 27 31 36 46 58 69 76 64 65 66 70 70 70 70 69 65 71 76 71 64 57 55 55 49 41 55 69 80 85 84 75 74 108 100 110 109 101 108 102 90 74
13 22 28 31 35 48 62 67 66 63 62 66 67 70 70 70 67 70 72 72 71 61 54 54 56 50 42 51 53 63 83 98 85 108 113 130 103 99 99 92 96 89 83
17 22 23 27 38 53 59 60 57 60 62 65 66 66 68 70 72 64 59 59 55 52 47 54 54 60 52 49 48 59 59 76 49 32 121 126 108 97 97 93 91 90 79
15 17 23 31 42 53 55 56 55 60 61 63 63 61 65 63 58 53 44 37 36 33 43 55 62 58 46 44 47 54 77 58 50 39 88 100 89 83 86 91 87 85 85
13 17 24 31 40 47 51 58 57 59 59 60 59 60 61 55 58 52 40 38 31 34 45 55 55 37 41 42 47 58 76 58 69 85 70 62 67 75 83 75 76 81 79
12 17 25 29 40 41 46 57 56 57 59 59 59 59 53 54 53 56 36 49 45 54 52 77 39 31 35 40 36 43 76 73 48 80 69 70 68 58 60 65 77 78 76
13 18 19 32 42 37 45 51 54 54 54 59 59 59 53 47 37 36 45 49 47 59 70 85 13 38 41 40 30 34 58 71 53 67 81 69 61 58 69 66 57 65 72
9 10 21 29 41 38 43 48 49 51 53 57 58 57 54 48 36 33 35 31 28 34 49 72 9 31 51 39 31 40 50 69 63 60 64 54 67 81 65 57 58 58 63
4 11 16 24 34 37 41 45 46 46 48 55 57 53 51 50 44 41 31 26 26 18 16 38 30 33 44 39 27 29 48 68 67 65 66 53 61 54 63 63 70 71 71
Wind_Direction_850mb
175 186 209 248 277 295 304 313 316 317 316 318 322 319 315 313 309 309 309 301 294 285 278 273 284 255 259 242 248 245 242 240 237 229 224 216 221 229 235 234 232 223 233
170 175 179 198 258 295 311 315 314 313 313 311 312 308 308 308 308 305 303 305 293 285 277 274 268 267 260 259 239 242 239 236 230 226 223 216 215 221 225 225 230 228 229
172 170 171 196 232 284 302 306 310 310 311 310 304 298 297 296 299 304 306 303 297 282 277 277 268 267 269 269 248 238 237 233 231 228 213 200 205 215 222 227 224 226 229
175 171 165 184 253 295 309 311 306 308 312 314 305 303 300 301 303 304 305 302 295 291 284 282 276 275 271 268 261 258 229 228 228 225 216 216 212 199 202 215 218 227 228
169 157 167 192 295 312 310 308 305 306 312 314 312 304 298 296 295 297 300 299 294 291 290 286 285 283 275 271 262 259 248 222 222 222 212 211 210 211 201 198 209 220 224
151 161 183 263 290 297 299 297 303 310 313 313 312 307 301 297 295 291 291 291 292 292 288 289 289 289 279 267 266 261 250 244 223 220 210 210 205 207 204 201 205 207 216
154 159 242 270 284 291 286 298 308 314 318 318 315 306 301 295 290 289 289 292 287 287 286 286 291 292 280 260 262 250 259 240 216 218 211 211 211 211 209 211 207 196 206
168 219 239 270 281 274 292 308 315 317 319 319 318 311 307 303 294 288 283 280 281 285 288 290 297 288 278 251 253 253 252 234 227 223 215 211 214 211 217 214 213 187 193
204 223 242 260 256 293 307 313 315 317 320 324 317 313 306 301 297 293 286 276 276 278 284 287 292 284 280 257 251 246 244 224 210 219 219 219 221 220 217 221 220 207 189
193 190 230 251 290 302 306 312 315 321 322 324 323 312 307 303 301 299 291 287 276 273 276 282 285 279 285 266 246 236 225 214 206 218 220 221 217 219 219 222 225 220 216
189 210 260 275 287 298 308 315 321 324 323 322 321 315 308 308 307 305 299 293 285 275 271 278 281 282 286 258 247 230 222 200 203 211 224 222 219 221 223 219 224 223 218
183 228 251 275 292 305 312 321 326 323 322 317 315 309 309 308 307 307 303 297 290 276 273 280 281 282 284 250 245 229 213 190 197 209 219 223 224 223 224 217 218 217 219
194 225 254 287 306 315 320 324 325 320 320 318 315 314 316 311 308 305 305 303 296 280 276 283 288 280 280 267 223 221 215 204 201 212 216 222 221 216 220 220 216 220 224
194 239 288 311 320 317 323 325 324 323 323 320 317 313 314 312 312 310 307 305 300 284 279 283 293 296 284 230 222 219 197 194 195 213 222 223 221 216 215 218 218 216 220
226 281 311 317 317 318 323 321 322 325 324 320 320 319 320 318 314 312 306 304 302 283 280 286 292 297 297 238 222 215 198 200 203 213 226 224 224 218 211 213 210 213 217
266 302 313 314 320 321 319 320 324 326 321 323 324 323 323 320 316 315 311 304 301 286 276 283 295 303 280 230 217 213 210 202 195 205 215 226 225 221 214 212 214 213 213
277 302 309 320 322 317 318 324 325 325 327 327 329 326 324 319 316 313 307 307 305 290 275 279 295 292 286 220 200 183 195 212 214 217 212 219 221 220 215 212 214 212 216
298 308 313 320 316 316 320 324 328 331 332 333 330 330 325 320 320 316 311 310 309 296 276 275 291 291 300 245 220 218 217 228 213 211 216 213 214 214 214 213 212 214 219
320 309 315 312 311 320 325 327 333 331 337 335 332 330 329 323 320 314 309 303 304 299 275 273 283 288 298 267 232 218 221 221 226 238 233 212 209 206 204 206 208 212 217
288 294 296 304 320 324 326 330 335 334 337 336 336 336 337 332 326 322 315 309 301 297 277 278 281 299 295 264 234 212 202 200 227 189 185 193 200 196 199 202 203 207 206
282 291 309 316 323 329 328 336 339 338 336 340 340 347 346 341 346 334 332 326 325 310 290 294 291 293 295 245 221 215 210 207 206 161 160 175 183 188 196 204 203 206 203
284 299 307 317 328 333 336 344 343 338 340 342 348 353 352 357 5 357 346 352 349 327 321 311 300 285 272 236 215 197 208 195 190 177 168 172 185 193 197 199 203 207 206
290 303 310 322 325 331 346 346 344 342 340 346 356 354 355 6 20 16 26 37 33 12 352 343 291 262 240 215 201 191 199 194 198 196 191 196 198 195 196 200 204 205 204
297 306 310 322 329 336 354 346 346 342 344 351 357 360 2 4 15 31 28 27 18 359 353 350 277 216 200 183 165 182 193 198 186 193 198 196 198 205 204 196 201 207 204
296 302 317 332 333 343 353 348 350 346 350 356 358 3 4 357 360 2 11 14 23 19 351 350 25 185 183 181 193 183 192 195 202 190 195 190 196 179 175 185 192 195 200
305 317 326 325 333 342 353 352 356 354 353 360 0 5 6 1 1 357 355 352 340 8 22 350 37 116 156 162 174 183 189 195 187 172 173 171 178 161 170 194 194 195 196